Flag for Germany Weather past 2 weeks in Cloppenburg, Lower Saxony, Germany

Now
52 °F

Cool.


Feels Like: 49 °F
Forecast: 40 / 52 °F
Wind: 9 mph from West

Location: Meppen-Mil


UV Index: 3 (Moderate)

Visibility: 4 mi


Pressure: 29.89 "Hg

Humidity: 67%

Dew point: 41 °F

Location of CloppenburgLocation

Historic Weather in Cloppenburg

°F

Cloppenburg temperature yesterday

Maximum temperature yesterday: 57 °F (at 3:20 PM)
Minimum temperature yesterday: 28 °F (at 5:20 AM)
Average temperature yesterday: 44 °F

Past Weeks' High & Low Weather Summary

 TemperatureHumidityPressure
High70 °F (Apr 3, 3:20 PM)100% (Apr 6, 6:20 AM)30.48 "Hg (Apr 6, 6:20 AM)
Low28 °F (Apr 16, 5:20 AM)27% (Apr 16, 4:20 PM)29.62 "Hg (Apr 3, 2:20 PM)
Average51 °F73%30.02 "Hg
* Reported Apr 2 9:20 PM — Apr 17 9:20 PM, Cloppenburg, Weather by CustomWeather, © 2014

Note: Actual official high and low records may vary slightly from our data, if they occured in-between our weather recording intervals... More about our weather records

Advertising

Historic Weather Conditions — Data for Previous 24 hours

 ConditionsComfort  
Time TempWeatherWind HumidityBarometerVisibility
9:20 PM
Apr 17
52 °FCool.9 mph67%29.89 "Hg4 mi
8:20 PM54 °FCool.9 mph54%29.89 "Hg5 mi
6:20 PM61 °FRefreshingly cool.8 mph31%29.92 "Hg6 mi
5:20 PM61 °FRefreshingly cool.15 mph29%29.95 "Hg6 mi
4:20 PM61 °FRefreshingly cool.16 mph31%29.95 "Hg6 mi
3:20 PM61 °FRefreshingly cool.16 mph31%30.01 "Hg6 mi
2:20 PM61 °FPassing clouds.16 mph31%30.04 "HgN/A
1:20 PM59 °FScattered clouds.15 mph34%30.09 "HgN/A
12:20 PM57 °FScattered clouds.14 mph39%30.12 "HgN/A
11:20 AM55 °FBroken clouds.15 mph41%30.15 "HgN/A
10:20 AM52 °FPartly sunny.9 mph50%30.18 "HgN/A
9:20 AM50 °FBroken clouds.12 mph50%30.18 "HgN/A
8:20 AM46 °FPassing clouds.9 mph57%30.21 "HgN/A
7:20 AM43 °FPassing clouds.6 mph66%30.21 "HgN/A
6:20 AM43 °FQuite cool.6 mph66%30.21 "HgN/A
5:20 AM43 °FQuite cool.6 mph66%30.24 "HgN/A
4:20 AM41 °FQuite cool.5 mph76%30.24 "HgN/A
3:20 AM36 °FChilly.3 mph87%30.27 "Hg6 mi
2:20 AM36 °FChilly.2 mph87%30.30 "HgN/A
1:20 AM37 °FChilly.1 mph81%30.30 "HgN/A
12:20 AM39 °FChilly.1 mph75%30.33 "HgN/A
11:20 PM
Apr 16
39 °FChilly.No wind75%30.33 "HgN/A
10:20 PM43 °FQuite cool.1 mph66%30.33 "HgN/A
Weather by CustomWeather, © 2014

See weather overview